Wind_Speed
13 16 19 23 26 30 33 37 40 44 48 52 55 58 58 56 56 55 56 58 60 64 67 69 70 71 72 72 70 68 66 65 64 63 64 65 67 69 70 71 72 71 65 54
14 17 19 22 25 29 33 37 41 45 48 53 56 59 60 59 58 57 57 58 61 64 66 68 69 70 71 71 69 67 65 64 63 62 62 63 65 67 68 69 70 71 68 60
15 18 20 21 25 28 32 36 41 45 49 54 57 60 62 62 60 58 58 59 61 63 66 67 68 69 69 69 68 66 64 63 62 61 61 62 63 65 66 66 68 69 69 65
17 19 22 25 27 29 31 36 40 44 48 53 57 61 64 65 63 60 59 59 60 63 65 66 67 68 68 68 67 65 63 62 60 60 60 61 62 63 64 65 66 67 68 67
21 22 23 26 29 32 34 36 40 44 48 53 57 61 64 67 65 62 60 59 60 63 64 65 66 67 67 67 66 64 62 60 59 59 59 60 60 61 62 63 64 65 66 66
24 26 28 29 32 34 37 39 43 46 49 53 57 61 64 67 66 63 61 60 60 62 64 65 65 65 66 66 65 64 61 59 58 58 59 59 59 60 61 62 62 63 64 65
25 27 30 31 34 36 38 41 44 47 49 53 56 60 63 67 67 64 62 60 60 62 63 64 64 64 64 65 64 63 61 58 57 57 57 58 59 59 59 60 61 62 62 63
27 29 32 33 35 37 39 41 43 46 49 52 56 59 63 66 68 66 63 61 60 61 62 63 63 63 63 63 63 62 60 58 57 56 56 56 57 58 58 58 59 59 59 60
29 29 34 34 35 38 40 42 44 46 49 52 55 59 62 65 68 67 64 62 60 60 62 62 62 62 62 62 62 61 59 57 56 55 55 55 55 56 56 56 56 57 57 58
32 30 35 36 38 40 43 44 45 47 49 52 55 58 62 65 67 67 65 62 60 60 61 61 61 60 61 61 61 60 58 57 55 54 54 54 54 55 55 55 55 55 56 56
35 35 37 36 39 42 44 46 47 48 50 52 55 58 61 64 66 67 66 63 60 59 60 60 60 59 59 60 60 59 57 56 54 53 53 53 53 54 54 55 56 55 55 55
38 39 42 39 41 44 46 48 48 49 50 52 55 57 60 63 65 67 66 64 60 58 58 59 58 58 58 58 58 58 56 54 53 52 52 51 51 52 54 54 54 54 54 54
41 42 44 43 44 46 48 50 50 50 51 53 54 56 59 62 64 65 66 64 60 58 57 58 57 57 56 57 57 57 55 53 52 51 51 50 50 49 50 51 53 53 52 52
41 44 45 45 47 48 50 51 52 52 52 53 54 56 58 61 63 64 65 64 60 57 56 57 56 56 55 55 55 55 55 53 51 50 50 50 50 49 48 48 49 50 50 50
39 44 47 48 49 50 51 53 53 53 53 53 54 55 57 60 62 63 64 64 60 57 55 55 55 54 54 53 54 54 54 53 51 49 49 49 49 49 48 48 47 47 47 47
38 42 45 48 50 51 52 54 55 54 54 53 53 55 56 58 61 62 63 63 60 56 54 54 53 53 53 52 52 53 52 52 50 49 48 48 49 48 47 46 46 46 46 45
40 42 44 48 50 52 54 55 56 55 54 53 53 54 56 58 59 61 62 62 60 56 53 52 52 51 51 51 51 51 51 51 50 48 47 47 48 48 47 46 45 45 45 44
44 45 46 49 51 53 55 56 56 56 54 52 52 53 55 57 59 59 60 61 60 55 52 51 50 50 50 49 49 50 50 50 49 48 47 46 47 47 47 46 44 43 43 43
51 51 51 51 52 54 55 56 57 56 54 52 51 53 55 56 58 58 59 60 59 54 51 50 49 48 48 48 48 48 49 49 49 47 46 45 46 46 46 45 44 43 41 41
60 58 56 54 52 53 54 56 57 56 54 52 51 52 54 56 56 57 58 59 58 54 50 48 47 46 46 47 46 47 47 48 48 47 46 45 45 45 45 44 43 42 40 40
65 63 60 56 53 53 54 56 57 56 54 52 51 52 54 55 55 55 56 57 57 53 49 47 46 45 45 45 45 45 46 46 47 46 45 44 44 43 43 43 42 41 39 38
68 67 63 58 54 53 55 57 58 57 55 53 51 52 53 54 54 54 55 56 56 52 48 45 44 43 43 43 43 43 44 45 46 46 45 44 43 42 42 42 41 40 38 37
65 64 62 58 56 54 55 58 58 57 55 52 51 52 53 53 53 53 54 55 54 50 46 44 43 42 41 42 42 42 42 43 44 45 44 43 42 41 41 41 40 38 37 36
62 59 58 56 55 55 56 57 58 57 54 52 51 52 52 52 52 52 53 54 53 49 45 43 42 41 40 40 40 40 40 41 43 43 43 42 41 40 40 39 38 37 36 35
58 56 54 54 53 55 57 59 58 56 54 52 52 52 52 51 51 51 52 52 51 47 43 41 40 39 38 38 38 39 39 40 41 42 42 42 41 39 38 38 37 36 34 33
55 54 53 52 53 55 58 58 57 55 53 52 52 51 51 50 50 51 51 50 49 45 42 40 39 38 37 36 37 37 37 38 39 40 41 41 40 38 37 36 35 34 33 32
56 54 53 52 53 55 56 57 56 54 53 53 52 51 50 50 50 50 49 48 46 43 40 39 38 37 36 35 35 36 36 36 37 39 40 40 39 37 36 35 34 33 32 31
Wind_Direction
353 357 358 359 358 358 359 -0 0 0 360 359 358 356 354 351 347 345 344 344 345 346 347 348 348 349 349 349 349 350 351 353 354 355 356 358 1 2 3 5 6 8 7 5
339 345 348 350 351 353 353 355 358 358 359 358 357 356 354 352 349 346 345 345 346 347 348 349 350 350 351 350 351 351 353 354 356 356 357 359 1 4 5 6 7 9 10 9
324 331 338 342 346 349 350 351 354 356 357 357 357 355 355 353 350 347 346 346 347 348 349 350 351 352 352 351 352 353 354 356 357 358 359 0 3 5 6 8 9 10 12 13
313 322 331 337 340 344 349 349 351 353 354 355 355 355 354 353 350 348 347 346 347 349 350 351 352 353 353 353 353 354 356 357 358 359 -0 2 4 6 7 9 10 11 13 14
306 315 325 329 334 339 344 348 349 351 352 353 354 354 353 353 351 349 347 347 348 349 350 351 353 354 354 354 355 356 357 358 359 -0 2 3 5 6 8 10 11 12 13 15
302 310 320 326 330 335 339 344 347 349 350 351 352 352 352 352 351 349 347 347 348 349 350 352 353 354 354 355 356 357 358 359 359 1 3 5 6 7 9 10 12 13 14 15
296 306 313 320 325 330 336 341 343 346 348 348 349 350 351 351 351 349 347 347 347 349 350 352 354 355 355 356 356 358 359 360 0 2 4 6 7 8 9 10 12 13 14 15
291 301 308 315 320 325 331 336 339 343 345 346 347 348 349 350 350 349 348 347 347 348 350 352 353 355 355 356 357 358 359 -0 1 2 4 7 8 9 10 11 12 13 14 16
288 298 302 309 314 319 325 331 336 339 342 344 345 346 348 348 349 349 348 347 347 348 350 351 353 355 355 356 357 358 359 0 1 2 4 7 9 10 11 12 12 13 15 16
284 292 296 303 309 315 321 326 331 336 339 341 342 344 345 347 348 348 347 346 346 347 349 351 352 354 355 356 357 358 359 0 1 2 4 6 8 10 11 12 12 13 15 16
282 288 290 298 304 310 316 321 327 332 335 339 340 341 343 344 346 347 347 346 345 346 348 350 352 354 355 356 357 358 359 0 1 1 2 4 5 8 10 11 12 13 14 16
280 285 289 295 300 306 311 316 322 328 332 335 337 339 340 342 344 346 346 345 345 345 347 349 351 353 355 356 357 358 359 360 1 1 2 3 4 5 7 10 11 12 13 14
278 282 287 293 297 303 307 312 317 323 328 331 334 336 338 340 342 344 345 344 344 344 346 348 350 352 354 356 357 358 359 359 0 1 2 3 3 4 6 7 9 10 12 13
274 279 284 289 294 299 303 307 313 318 323 327 330 333 335 337 340 342 344 344 343 343 344 346 348 351 353 355 356 357 358 358 359 0 1 2 2 3 4 6 8 8 10 11
269 274 280 285 290 294 299 303 308 313 319 323 326 330 332 334 337 340 342 343 342 342 343 345 347 350 352 354 355 356 357 357 358 359 0 1 1 2 3 4 6 7 8 9
265 269 275 280 286 290 294 298 303 309 314 319 323 326 329 331 334 337 340 341 341 340 341 343 346 348 351 353 355 356 356 357 357 358 359 360 0 1 2 2 4 5 7 8
264 267 271 275 280 285 289 294 299 304 309 314 319 322 325 328 331 335 338 340 339 339 340 342 344 347 349 352 354 355 356 356 356 356 357 358 359 360 1 2 3 4 5 7
264 265 267 271 276 280 284 290 294 299 305 310 315 319 322 325 329 332 335 337 338 338 338 340 342 345 348 350 352 354 355 356 356 356 356 356 358 359 360 1 2 3 4 5
266 266 266 268 272 277 282 287 291 296 302 307 311 315 319 322 326 329 333 335 336 336 337 338 341 344 346 349 351 353 355 355 355 355 354 355 356 357 359 0 1 2 3 4
266 267 267 268 271 275 279 284 288 293 298 303 308 311 315 319 322 326 330 333 335 335 335 336 339 342 345 347 350 352 354 354 355 354 354 354 355 356 357 359 360 0 1 2
266 267 268 269 271 273 277 281 284 289 294 299 303 308 311 315 319 323 327 330 333 333 333 334 337 340 343 346 348 351 352 353 354 354 353 353 353 354 356 357 358 359 0 1
265 266 268 269 270 271 273 276 280 285 289 294 299 304 308 311 315 320 324 328 330 331 331 332 335 338 341 344 347 349 351 352 353 353 352 352 352 353 354 356 357 358 359 360
264 265 266 266 267 268 270 273 276 281 285 290 295 300 304 308 312 316 321 325 327 328 329 330 332 335 339 342 345 347 350 351 352 352 352 352 352 352 353 354 356 357 358 359
264 264 264 264 263 264 266 269 272 277 282 287 292 296 300 304 308 313 318 322 325 325 326 327 330 333 337 340 343 346 348 350 351 351 351 351 351 352 353 354 355 356 358 359
263 262 261 260 260 260 262 265 269 274 279 283 287 292 296 301 305 310 315 319 321 322 323 325 327 331 334 338 341 344 346 348 349 350 350 350 350 351 352 354 355 356 357 358
261 260 258 256 256 257 260 264 268 272 276 280 284 289 293 297 302 308 312 316 318 319 320 322 324 328 332 336 339 341 344 346 348 349 349 349 350 350 351 353 355 356 357 357
257 256 255 254 255 256 259 262 265 269 272 276 281 286 291 295 300 305 309 313 315 316 317 319 322 325 329 333 336 339 342 344 346 347 348 348 349 349 350 351 353 354 355 357
Height
5863 5859 5855 5851 5847 5841 5835 5829 5822 5815 5806 5796 5786 5774 5763 5752 5740 5729 5717 5705 5692 5678 5663 5647 5632 5615 5599 5582 5565 5549 5534 5518 5502 5487 5471 5455 5439 5422 5405 5387 5369 5351 5333 5319
5861 5857 5853 5850 5845 5839 5832 5826 5819 5811 5803 5793 5783 5771 5760 5748 5736 5724 5713 5700 5687 5674 5659 5643 5627 5611 5595 5579 5563 5547 5532 5517 5501 5486 5471 5456 5440 5424 5408 5391 5374 5356 5339 5324
5858 5855 5852 5848 5843 5837 5831 5823 5816 5807 5799 5789 5779 5768 5756 5744 5732 5720 5708 5696 5683 5669 5655 5639 5624 5608 5592 5577 5561 5546 5531 5515 5501 5486 5472 5457 5442 5426 5411 5395 5379 5362 5346 5330
5855 5853 5849 5846 5839 5834 5828 5820 5812 5804 5795 5786 5775 5764 5752 5741 5728 5716 5704 5692 5679 5666 5651 5636 5621 5605 5590 5575 5560 5545 5529 5515 5501 5487 5473 5458 5443 5429 5415 5400 5384 5369 5353 5337
5851 5848 5845 5841 5835 5829 5823 5818 5809 5800 5791 5782 5771 5761 5749 5737 5724 5712 5700 5688 5675 5662 5648 5633 5618 5603 5588 5574 5559 5544 5529 5515 5502 5489 5475 5460 5446 5432 5418 5404 5390 5375 5360 5345
5846 5841 5839 5837 5830 5823 5818 5811 5804 5795 5786 5777 5767 5757 5747 5734 5721 5708 5696 5684 5672 5659 5645 5630 5616 5601 5587 5573 5558 5544 5530 5516 5503 5490 5476 5462 5448 5435 5421 5408 5394 5380 5366 5352
5840 5836 5834 5831 5824 5818 5813 5807 5799 5790 5782 5773 5764 5754 5743 5731 5718 5705 5693 5681 5668 5656 5642 5628 5614 5600 5586 5572 5558 5544 5530 5517 5505 5491 5478 5464 5451 5438 5424 5411 5398 5385 5372 5359
5836 5833 5830 5824 5818 5813 5809 5802 5794 5786 5778 5769 5760 5750 5739 5727 5715 5702 5690 5677 5665 5653 5640 5626 5612 5598 5585 5571 5557 5544 5531 5518 5506 5493 5481 5467 5454 5441 5429 5417 5405 5393 5381 5368
5831 5830 5823 5818 5814 5808 5803 5797 5789 5782 5774 5765 5756 5746 5735 5724 5712 5699 5686 5674 5662 5650 5637 5624 5611 5597 5584 5570 5556 5543 5530 5518 5506 5494 5483 5471 5459 5447 5435 5423 5411 5400 5387 5375
5823 5823 5817 5812 5807 5802 5796 5790 5784 5777 5770 5761 5752 5742 5732 5721 5709 5696 5683 5671 5659 5647 5635 5622 5609 5596 5583 5569 5556 5543 5530 5518 5507 5495 5484 5473 5462 5451 5439 5428 5417 5405 5393 5382
5814 5814 5810 5807 5801 5795 5790 5784 5778 5772 5764 5756 5748 5738 5728 5717 5705 5693 5681 5668 5657 5645 5633 5621 5608 5595 5582 5569 5556 5543 5531 5519 5508 5496 5485 5474 5464 5454 5443 5431 5420 5409 5398 5388
5806 5804 5800 5800 5794 5789 5784 5778 5772 5766 5759 5751 5743 5734 5724 5713 5702 5690 5678 5666 5654 5642 5631 5619 5606 5594 5581 5568 5556 5543 5532 5520 5509 5499 5488 5477 5466 5454 5444 5434 5424 5413 5403 5392
5796 5794 5791 5789 5786 5781 5775 5770 5765 5759 5753 5746 5738 5729 5719 5709 5698 5686 5675 5663 5651 5640 5629 5617 5605 5593 5580 5568 5556 5544 5532 5521 5511 5501 5491 5480 5470 5460 5449 5438 5427 5418 5408 5398
5788 5784 5781 5780 5777 5772 5767 5762 5757 5752 5746 5740 5732 5723 5714 5705 5694 5683 5671 5660 5648 5637 5626 5615 5603 5592 5579 5567 5556 5544 5533 5522 5512 5502 5492 5482 5472 5462 5452 5443 5434 5423 5413 5404
5780 5775 5772 5770 5767 5764 5759 5754 5749 5744 5739 5733 5726 5718 5709 5700 5690 5679 5668 5656 5645 5634 5623 5612 5601 5590 5578 5567 5555 5544 5533 5522 5511 5502 5492 5483 5473 5463 5454 5445 5436 5427 5418 5409
5770 5767 5764 5761 5757 5754 5749 5745 5740 5736 5731 5726 5719 5712 5703 5694 5685 5675 5664 5652 5641 5631 5620 5610 5599 5588 5577 5566 5555 5543 5532 5522 5512 5502 5493 5484 5474 5465 5456 5447 5438 5429 5421 5413
5757 5756 5754 5751 5748 5744 5740 5735 5731 5727 5723 5718 5712 5705 5697 5688 5679 5670 5659 5649 5638 5627 5617 5607 5597 5586 5576 5565 5554 5543 5532 5522 5512 5502 5494 5485 5476 5466 5457 5448 5439 5431 5422 5414
5744 5743 5741 5739 5736 5733 5729 5725 5721 5717 5714 5709 5704 5697 5690 5682 5674 5665 5655 5644 5633 5623 5613 5604 5594 5584 5574 5563 5553 5542 5532 5521 5512 5502 5493 5485 5476 5467 5458 5449 5440 5432 5424 5416
5727 5726 5727 5725 5723 5720 5717 5714 5710 5706 5703 5700 5695 5689 5682 5675 5668 5659 5649 5639 5629 5619 5609 5600 5590 5581 5571 5561 5551 5541 5531 5521 5511 5502 5493 5485 5476 5467 5459 5450 5442 5434 5426 5418
5709 5708 5709 5710 5710 5708 5706 5702 5698 5695 5693 5689 5685 5680 5674 5668 5661 5652 5643 5634 5624 5614 5605 5596 5587 5578 5568 5559 5550 5540 5530 5520 5510 5501 5492 5484 5476 5467 5459 5451 5442 5435 5427 5420
5689 5689 5692 5695 5696 5696 5693 5689 5685 5683 5681 5679 5675 5671 5666 5660 5653 5645 5637 5628 5619 5609 5600 5591 5583 5574 5565 5556 5547 5538 5528 5519 5509 5500 5491 5483 5475 5467 5459 5451 5443 5435 5428 5421
5668 5670 5674 5679 5681 5681 5679 5675 5673 5671 5670 5667 5665 5661 5656 5651 5645 5638 5630 5622 5613 5603 5595 5587 5578 5570 5562 5553 5544 5535 5526 5517 5508 5499 5490 5482 5474 5466 5459 5451 5443 5436 5428 5421
5647 5651 5656 5662 5664 5665 5663 5661 5660 5658 5657 5656 5653 5650 5646 5641 5636 5629 5623 5615 5606 5597 5589 5581 5574 5566 5558 5549 5541 5533 5524 5516 5507 5498 5489 5481 5473 5465 5458 5451 5443 5436 5429 5422
5628 5632 5638 5642 5645 5647 5647 5646 5645 5644 5644 5643 5642 5639 5635 5631 5627 5621 5614 5607 5599 5591 5583 5576 5569 5561 5554 5546 5538 5530 5522 5513 5505 5496 5488 5480 5472 5464 5457 5450 5443 5436 5429 5422
5609 5615 5620 5624 5627 5629 5629 5628 5629 5630 5631 5630 5629 5627 5624 5621 5617 5612 5606 5599 5592 5584 5577 5570 5563 5556 5549 5542 5535 5527 5519 5511 5503 5495 5486 5478 5470 5463 5456 5449 5442 5435 5429 5422
5590 5596 5601 5605 5608 5610 5611 5613 5614 5616 5616 5616 5616 5614 5613 5610 5606 5602 5596 5590 5583 5577 5570 5564 5558 5551 5544 5538 5531 5523 5516 5508 5500 5492 5484 5477 5469 5461 5454 5448 5441 5435 5429 5422
5571 5577 5583 5587 5590 5592 5595 5597 5599 5601 5602 5603 5603 5602 5601 5598 5595 5591 5586 5581 5575 5569 5563 5557 5551 5545 5539 5533 5526 5519 5512 5505 5498 5490 5482 5474 5467 5460 5453 5446 5440 5434 5428 5422